Location: Laterina
(43.5167°N, 11.7167°E)
Time: 16:11:43
(UTC+00:00)

CZ-2C R/B - Pass Details

Date: 24 September 2020
Orbit: 785 x 870 km, 98.2° (Epoch: 20 October)

Event Time Altitude Azimuth Distance (km) Brightness Sun altitude
Rises 17:26:41 0° 32° (NNE) 3,442 5.6 -4.5°
Reaches altitude 10° 17:30:18 10° 56° (NE) 2,511 4.7 -5.2°
Maximum altitude 17:33:15 14° 88° (E) 2,211 4.2 -5.7°
Drops below altitude 10° 17:36:11 10° 120° (ESE) 2,512 4.6 -6.2°
Sets 17:39:47 0° 144° (SE) 3,444 5.5 -6.9°
